EW9479 Weather Reports


Display with metric or nautical units.
time (UTC)temp
F
wind
direction
speed
MPH
gust
MPH
rain 1hr
in
rain 24hr
in
rain mn
in
humidity
%
barometer
mb
20260906180105 99 5 3.0 11.0 0.00 0.00 0.00 50 1013.3
20260906174546 98 101 5.0 9.0 0.00 0.00 0.00 51 1013.5
20260906173045 99 91 2.0 11.0 0.00 0.00 0.00 52 1013.7
20260906171602 97 349 3.0 9.0 0.00 0.00 0.00 54 1013.8
20260906170103 96 333 4.0 9.0 0.00 0.00 0.00 55 1014.0
20260906164545 96 311 3.0 11.0 0.00 0.00 0.00 54 1014.3
20260906163054 97 46 4.0 10.0 0.00 0.00 0.00 53 1014.3
20260906161551 96 42 2.0 8.0 0.00 0.00 0.00 53 1014.3
20260906160053 95 319 3.0 9.0 0.00 0.00 0.00 55 1014.4
20260906154545 95 302 2.0 9.0 0.00 0.00 0.00 57 1014.4
20260906153045 94 61 2.0 6.0 0.00 0.00 0.00 58 1014.2
20260906151551 92 180 1.0 4.0 0.00 0.00 0.00 61 1014.2
20260906150058 90 281 2.0 5.0 0.00 0.00 0.00 64 1014.3
20260906144546 89 226 3.0 4.0 0.00 0.00 0.00 65 1014.4
20260906143056 87 220 2.0 5.0 0.00 0.00 0.00 68 1014.4
20260906141550 86 233 2.0 4.0 0.00 0.00 0.00 70 1014.7
20260906140055 86 213 1.0 4.0 0.00 0.00 0.00 71 1014.7
20260906134545 85 106 0.0 1.0 0.00 0.00 0.00 72 1014.8
20260906133109 82 0 0.0 3.0 0.00 0.00 0.00 75 1014.9
20260906131543 80 205 0.0 4.0 0.00 0.00 0.00 79 1014.9
20260906130107 78 209 4.0 6.0 0.00 0.00 0.00 82 1014.8
20260906124550 77 207 2.0 4.0 0.00 0.00 0.00 84 1014.9
20260906123046 77 0 0.0 3.0 0.00 0.00 0.00 85 1015.0
20260906121545 76 216 1.0 1.0 0.00 0.00 0.00 84 1014.9
20260906120047 76 215 1.0 3.0 0.00 0.00 0.00 84 1014.8
20260906114550 76 53 0.0 1.0 0.00 0.00 0.00 84 1014.6
20260906113046 77 0 1.0 4.0 0.00 0.00 0.00 84 1014.9
20260906111601 76 59 0.0 2.0 0.00 0.00 0.00 85 1014.8
20260906110045 76 49 0.0 2.0 0.00 0.00 0.00 86 1014.4
20260906104551 76 190 1.0 2.0 0.00 0.00 0.00 86 1014.2
20260906103045 76 64 0.0 5.0 0.00 0.00 0.00 86 1014.4
20260906101545 75 33 3.0 7.0 0.00 0.00 0.00 88 1014.2
20260906100048 75 56 1.0 2.0 0.00 0.00 0.00 88 1013.2
20260906094549 75 0 0.0 2.0 0.00 0.00 0.00 88 1013.3
20260906093047 76 0 0.0 0.0 0.00 0.00 0.00 87 1013.1
20260906091546 76 0 0.0 0.0 0.00 0.00 0.00 86 1013.0
20260906090054 77 0 0.0 0.0 0.00 0.00 0.00 84 1013.1
20260906084546 77 0 0.0 0.0 0.00 0.00 0.00 82 1013.0
20260906083050 78 0 0.0 2.0 0.00 0.00 0.00 83 1012.9
20260906081545 77 222 1.0 3.0 0.00 0.00 0.00 85 1013.0
20260906080046 75 198 3.0 4.0 0.00 0.00 0.00 88 1013.0
20260906074547 76 0 0.0 0.0 0.00 0.00 0.00 87 1013.0
20260906073046 76 0 0.0 0.0 0.00 0.00 0.00 87 1012.9
20260906071547 76 0 0.0 0.0 0.00 0.00 0.00 86 1012.8
20260906070044 76 0 0.0 0.0 0.00 0.00 0.00 86 1012.8
20260906064551 76 210 0.0 1.0 0.00 0.00 0.00 86 1012.8
20260906063055 76 0 0.0 0.0 0.00 0.00 0.00 86 1012.9
20260906061546 76 0 0.0 0.0 0.00 0.00 0.00 85 1013.1
20260906060052 77 0 0.0 0.0 0.00 0.00 0.00 85 1013.4
20260906054559 77 0 0.0 0.0 0.00 0.00 0.00 85 1013.5
20260906053045 77 0 0.0 1.0 0.00 0.00 0.00 85 1013.5
20260906051609 77 0 0.0 0.0 0.00 0.00 0.00 84 1013.6
20260906050054 77 0 0.0 0.0 0.00 0.00 0.00 83 1013.6
20260906044552 78 0 0.0 0.0 0.00 0.00 0.00 83 1013.6
20260906043046 78 0 0.0 0.0 0.00 0.00 0.00 82 1013.5
20260906041553 78 0 0.0 0.0 0.00 0.00 0.00 81 1013.4
20260906040125 79 0 0.0 0.0 0.00 0.00 0.00 79 1013.4
20260906034555 80 0 0.0 0.0 0.00 0.00 0.00 78 1013.3
20260906033101 80 0 0.0 0.0 0.00 0.00 0.00 77 1013.3
20260906031550 80 210 0.0 1.0 0.00 0.00 0.00 77 1013.2
20260906030047 81 210 0.0 1.0 0.00 0.00 0.00 77 1013.2
20260906024559 81 0 0.0 1.0 0.00 0.00 0.00 75 1013.1
20260906023101 82 0 0.0 1.0 0.00 0.00 0.00 75 1013.1
20260906021550 82 108 0.0 1.0 0.00 0.00 0.00 75 1013.0
20260906020052 82 0 0.0 0.0 0.00 0.00 0.00 75 1012.9
20260906014554 83 0 0.0 0.0 0.00 0.00 0.00 72 1012.9
20260906013053 84 0 0.0 0.0 0.00 0.00 0.00 71 1012.8
20260906011553 85 0 0.0 1.0 0.00 0.00 0.00 71 1012.5
20260906010045 86 0 0.0 0.0 0.00 0.00 0.00 69 1012.2
20260906004550 87 0 0.0 0.0 0.00 0.00 0.00 66 1012.0
20260906003044 89 0 0.0 0.0 0.00 0.00 0.00 64 1011.9
20260906001546 91 0 0.0 0.0 0.00 0.00 0.00 59 1012.0
20260906000053 94 0 0.0 0.0 0.00 0.00 0.00 58 1012.0
20260905234547 95 0 0.0 0.0 0.00 0.00 0.00 55 1012.2
20260905233055 96 0 0.0 1.0 0.00 0.00 0.00 53 1012.2
20260905231546 96 0 0.0 2.0 0.00 0.00 0.00 51 1012.2
20260905230045 97 83 0.0 3.0 0.00 0.00 0.00 51 1012.3
20260905224610 98 0 0.0 3.0 0.00 0.00 0.00 49 1012.2
20260905223048 99 49 1.0 4.0 0.00 0.00 0.00 48 1012.2
20260905221552 99 87 1.0 5.0 0.00 0.00 0.00 49 1012.3
20260905220044 99 79 2.0 6.0 0.00 0.00 0.00 48 1012.4
20260905214551 99 5 1.0 5.0 0.00 0.00 0.00 49 1012.3
20260905213044 99 91 1.0 7.0 0.00 0.00 0.00 50 1012.5
20260905211549 98 8 1.0 10.0 0.00 0.00 0.00 51 1012.5
20260905210053 99 67 4.0 9.0 0.00 0.00 0.00 48 1012.5
20260905204553 100 44 1.0 3.0 0.00 0.00 0.00 45 1012.6
20260905203047 101 352 1.0 4.0 0.00 0.00 0.00 42 1012.9
20260905201548 101 21 2.0 6.0 0.00 0.00 0.00 44 1013.2
20260905200046 101 66 1.0 5.0 0.00 0.00 0.00 44 1013.4
20260905194551 100 106 2.0 6.0 0.00 0.00 0.00 46 1013.6
20260905193044 100 70 2.0 5.0 0.00 0.00 0.00 46 1013.8
20260905191546 100 153 2.0 8.0 0.00 0.00 0.00 46 1013.9
20260905190052 99 84 4.0 9.0 0.00 0.00 0.00 48 1014.1
20260905184558 100 104 2.0 9.0 0.00 0.00 0.00 45 1014.4
20260905183047 99 342 0.0 6.0 0.00 0.00 0.00 47 1014.5
20260905181554 99 309 2.0 6.0 0.00 0.00 0.00 48 1014.5